{"data":{"norad_id":49097,"intl_designator":"2021-075Y","name":"ONEWEB-0311","alt_names":[],"object_type":"PAYLOAD","status":"ACTIVE","operator":null,"country":"UK","launch_date":"2021-08-21","launch_site_code":"TYMSC","launch_vehicle":null,"mission":null,"orbit_class":"UNKNOWN","rcs_meters":null,"size_class":null,"mass_kg":null,"dimensions":null,"purposes":["comms"],"wikipedia_slug":null,"has_3d_model":false,"image_url":null,"decayed_at":null,"tle_current":{"epoch":"2026-09-19T22:33:41.126112Z","epoch_age_seconds":70374,"freshness":"FRESH","line1":"1 49097U 21075Y   26262.94005933 -.00000068  00000+0 -20771-3 0  9990","line2":"2 49097  87.9201 347.0474 0002200 111.1841 248.9526 13.17649263246109","mean_motion":13.17649263,"eccentricity":0.00022,"inclination_deg":87.9201,"raan_deg":347.0474,"arg_perigee_deg":111.1841,"mean_anomaly_deg":248.9526,"bstar":-0.00020771,"rev_number":24610,"period_min":109.28553147151,"perigee_km":1192.046445478,"apogee_km":1195.378059149,"semimajor_km":7571.8492523135,"source":"CELESTRAK","updated_at":"2026-09-20T09:00:44.657203Z"}}}